,,Stat1,,Stat2,,Stat3,,Stat4,,Wind1,,Wind1,
time,status,PR1M_SUM,status,RH1M_AVG,status,SR1M_AVG,status,TA1M_AVG,status,W1dAve1m,status,W1sAve1m,
2000-03-17, 00:01:00,VALID,0,VALID,94.3289,VALID,0,VALID,18.6043,VALID,207,VALID,0.80891,
2000-03-17, 00:02:01,VALID,0,VALID,94.4726,VALID,0,VALID,18.6172,VALID,210,VALID,1.16596,
2000-03-17, 00:03:00,VALID,0,VALID,94.657,VALID,0,VALID,18.6435,VALID,199,VALID,1.3101,
2000-03-17, 00:04:00,VALID,0,VALID,94.4166,VALID,0,VALID,18.649,VALID,188,VALID,1.61904,
2000-03-17, 00:05:00,VALID,0,VALID,94.2399,VALID,-0.0169808,VALID,18.6917,VALID,179,VALID,1.60629,
2000-03-17, 00:06:00,VALID,0,VALID,94.0377,VALID,0,VALID,18.7339,VALID,184,VALID,1.40966,
2000-03-17, 00:07:00,VALID,0,VALID,93.6766,VALID,-0.0339617,VALID,18.7302,VALID,188,VALID,1.54648,
2000-03-17, 00:08:00,VALID,0,VALID,93.5761,VALID,-0.0169808,VALID,18.7305,VALID,200,VALID,1.35896,
2000-03-17, 00:09:00,VALID,0,VALID,93.7122,VALID,0,VALID,18.7238,VALID,205,VALID,1.35177,
2000-03-17, 00:10:00,VALID,0,VALID,93.8699,VALID,-0.0169808,VALID,18.7208,VALID,201,VALID,1.43771,
2000-03-17, 00:11:00,VALID,0,VALID,93.8762,VALID,-0.0169808,VALID,18.7364,VALID,202,VALID,1.54067,
2000-03-17, 00:12:00,VALID,0,VALID,93.7071,VALID,0,VALID,18.7759,VALID,204,VALID,1.0375,
2000-03-17, 00:13:01,VALID,0,VALID,93.5252,VALID,0,VALID,18.798,VALID,203,VALID,0.841005,
2000-03-17, 00:14:00,VALID,0,VALID,93.4515,VALID,0,VALID,18.8142,VALID,206,VALID,0.942187,
2000-03-17, 00:15:00,VALID,0,VALID,93.3078,VALID,-0.0169808,VALID,18.8303,VALID,213,VALID,1.36659,
2000-03-17, 00:16:00,VALID,0,VALID,93.126,VALID,0,VALID,18.8536,VALID,203,VALID,1.16016,
2000-03-17, 00:17:00,VALID,0,VALID,92.9276,VALID,0,VALID,18.8631,VALID,183,VALID,1.43902,
2000-03-17, 00:18:00,VALID,0,VALID,92.8157,VALID,0,VALID,18.8495,VALID,171,VALID,1.28365,
2000-03-17, 00:19:00,VALID,0,VALID,93.3142,VALID,0,VALID,18.8109,VALID,184,VALID,1.14611,
2000-03-17, 00:20:00,VALID,0,VALID,93.3345,VALID,0,VALID,18.769,VALID,184,VALID,1.22676,
2000-03-17, 00:21:00,VALID,0,VALID,93.3803,VALID,0,VALID,18.7496,VALID,197,VALID,1.4622,
2000-03-17, 00:22:00,VALID,0,VALID,93.0865,VALID,0,VALID,18.7498,VALID,196,VALID,1.21875,
2000-03-17, 00:23:01,VALID,0,VALID,93.1997,VALID,0,VALID,18.7372,VALID,206,VALID,1.09434,
2000-03-17, 00:24:00,VALID,0,VALID,93.1692,VALID,0,VALID,18.7208,VALID,201,VALID,1.01542,
2000-03-17, 00:25:00,VALID,0,VALID,93.1272,VALID,0,VALID,18.7042,VALID,206,VALID,1.21895,
2000-03-17, 00:26:00,VALID,0,VALID,92.9886,VALID,0,VALID,18.7081,VALID,207,VALID,1.44821,
2000-03-17, 00:27:00,VALID,0,VALID,92.9085,VALID,0,VALID,18.7175,VALID,201,VALID,1.61191,
2000-03-17, 00:28:00,VALID,0,VALID,92.8195,VALID,-0.0169808,VALID,18.772,VALID,204,VALID,1.39556,
2000-03-17, 00:29:00,VALID,0,VALID,92.5944,VALID,-0.0169808,VALID,18.8144,VALID,195,VALID,1.16118,
2000-03-17, 00:30:00,VALID,0,VALID,92.6262,VALID,0.0169808,VALID,18.8502,VALID,201,VALID,1.29364,
2000-03-17, 00:31:00,VALID,0,VALID,92.349,VALID,-0.0169808,VALID,18.8661,VALID,199,VALID,1.56641,
2000-03-17, 00:32:00,VALID,0,VALID,92.04,VALID,0,VALID,18.8854,VALID,209,VALID,1.24199,
2000-03-17, 00:33:00,VALID,0,VALID,91.7603,VALID,-0.0169808,VALID,18.9046,VALID,202,VALID,1.19968,
2000-03-17, 00:34:00,VALID,0,VALID,91.5848,VALID,0,VALID,18.911,VALID,204,VALID,0.981702,
2000-03-17, 00:35:01,VALID,0,VALID,91.5008,VALID,0,VALID,18.9242,VALID,209,VALID,1.11052,
2000-03-17, 00:36:00,VALID,0,VALID,91.319,VALID,0.0169808,VALID,18.954,VALID,196,VALID,0.889286,
2000-03-17, 00:37:00,VALID,0,VALID,91.3165,VALID,0.0169808,VALID,18.9659,VALID,206,VALID,1.04955,
2000-03-17, 00:38:00,VALID,0,VALID,91.2707,VALID,-0.0169808,VALID,18.9724,VALID,208,VALID,1.28315,
2000-03-17, 00:39:00,VALID,0,VALID,91.2198,VALID,0,VALID,18.9987,VALID,197,VALID,1.39944,
2000-03-17, 00:40:00,VALID,0,VALID,90.8689,VALID,0,VALID,19.0178,VALID,200,VALID,1.23458,
2000-03-17, 00:41:00,VALID,0,VALID,90.8701,VALID,-0.0169808,VALID,19.034,VALID,194,VALID,1.37808,
2000-03-17, 00:42:00,VALID,0,VALID,90.8256,VALID,0,VALID,19.0601,VALID,188,VALID,1.55549,
2000-03-17, 00:43:00,VALID,0,VALID,90.6069,VALID,-0.0169808,VALID,19.0697,VALID,166,VALID,1.08418,
2000-03-17, 00:44:00,VALID,0,VALID,90.7226,VALID,0,VALID,19.037,VALID,167,VALID,1.04934,
2000-03-17, 00:45:00,VALID,0,VALID,91.0062,VALID,0,VALID,18.9562,VALID,169,VALID,0.972039,
2000-03-17, 00:46:01,VALID,0,VALID,90.996,VALID,-0.0169808,VALID,18.8693,VALID,161,VALID,0.912212,
2000-03-17, 00:47:00,VALID,0,VALID,91.8467,VALID,0,VALID,18.7789,VALID,169,VALID,0.988181,
2000-03-17, 00:48:00,VALID,0,VALID,92.3681,VALID,-0.0169808,VALID,18.7208,VALID,176,VALID,1.11992,
2000-03-17, 00:49:00,VALID,0,VALID,92.1023,VALID,-0.0169808,VALID,18.7305,VALID,172,VALID,1.26731,
2000-03-17, 00:50:00,VALID,0,VALID,91.9192,VALID,0,VALID,18.7563,VALID,176,VALID,1.14955,
2000-03-17, 00:51:00,VALID,0,VALID,91.8035,VALID,0,VALID,18.7528,VALID,182,VALID,1.1238,
2000-03-17, 00:52:00,VALID,0,VALID,92.04,VALID,0,VALID,18.7272,VALID,184,VALID,1.32072,
2000-03-17, 00:53:00,VALID,0,VALID,92.1023,VALID,0,VALID,18.7275,VALID,196,VALID,1.48647,
2000-03-17, 00:54:00,VALID,0,VALID,91.7768,VALID,0,VALID,18.7531,VALID,197,VALID,1.41787,
2000-03-17, 00:55:00,VALID,0,VALID,91.5415,VALID,0,VALID,18.7888,VALID,190,VALID,1.26182,
2000-03-17, 00:56:00,VALID,0,VALID,91.3521,VALID,0.0169808,VALID,18.8306,VALID,188,VALID,1.26074,
2000-03-17, 00:57:01,VALID,0,VALID,90.9159,VALID,0,VALID,18.8698,VALID,170,VALID,0.993877,
2000-03-17, 00:58:00,VALID,0,VALID,91.3889,VALID,0,VALID,18.8372,VALID,175,VALID,0.997466,
2000-03-17, 00:59:00,VALID,0,VALID,91.7526,VALID,0,VALID,18.8306,VALID,182,VALID,1.04902,
2000-03-17, 01:00:00,VALID,0,VALID,91.6801,VALID,0,VALID,18.8499,VALID,195,VALID,1.20212,
2000-03-17, 01:01:00,VALID,0,VALID,91.7196,VALID,-0.0169808,VALID,18.8502,VALID,190,VALID,1.1224,
2000-03-17, 01:02:00,VALID,0,VALID,91.9777,VALID,0,VALID,18.84,VALID,186,VALID,0.953125,
2000-03-17, 01:03:00,VALID,0,VALID,91.9586,VALID,0,VALID,18.8335,VALID,180,VALID,0.869922,
2000-03-17, 01:04:00,VALID,0,VALID,92.1545,VALID,0.0169808,VALID,18.8045,VALID,171,VALID,0.91324,
2000-03-17, 01:05:00,VALID,0,VALID,92.4978,VALID,0.0169808,VALID,18.7623,VALID,165,VALID,1.1766,
2000-03-17, 01:06:00,VALID,0,VALID,93.4184,VALID,0.0169808,VALID,18.7305,VALID,162,VALID,1.1995,
2000-03-17, 01:07:00,VALID,0,VALID,93.8037,VALID,0.0169808,VALID,18.7364,VALID,164,VALID,1.24023,
2000-03-17, 01:08:01,VALID,0,VALID,93.435,VALID,0.0169808,VALID,18.7854,VALID,167,VALID,1.05509,
2000-03-17, 01:09:00,VALID,0,VALID,92.4736,VALID,-0.0169808,VALID,18.7789,VALID,172,VALID,0.882583,
2000-03-17, 01:10:00,VALID,0,VALID,92.8831,VALID,0,VALID,18.6885,VALID,177,VALID,1.06949,
2000-03-17, 01:11:00,VALID,0,VALID,93.6575,VALID,0,VALID,18.6015,VALID,184,VALID,1.05446,
2000-03-17, 01:12:00,VALID,0,VALID,94.1966,VALID,-0.0169808,VALID,18.54,VALID,185,VALID,1.09643,
2000-03-17, 01:13:00,VALID,0,VALID,93.9805,VALID,0,VALID,18.4724,VALID,190,VALID,0.989926,
2000-03-17, 01:14:00,VALID,0,VALID,94.0453,VALID,-0.0169808,VALID,18.4083,VALID,194,VALID,0.984375,
2000-03-17, 01:15:00,VALID,0,VALID,94.718,VALID,-0.0169808,VALID,18.3566,VALID,191,VALID,1.08554,
2000-03-17, 01:16:00,VALID,0,VALID,95.5039,VALID,0,VALID,18.347,VALID,185,VALID,1.09457,
2000-03-17, 01:17:00,VALID,0,VALID,95.5509,VALID,0,VALID,18.3728,VALID,188,VALID,1.00164,
2000-03-17, 01:18:00,VALID,0,VALID,95.6132,VALID,-0.0169808,VALID,18.3954,VALID,180,VALID,1.05529,
2000-03-17, 01:19:01,VALID,0,VALID,95.4568,VALID,0,VALID,18.3981,VALID,186,VALID,1.05742,
2000-03-17, 01:20:00,VALID,0,VALID,95.2483,VALID,-0.0169808,VALID,18.4023,VALID,190,VALID,1.03906,
2000-03-17, 01:21:00,VALID,0,VALID,95.0041,VALID,-0.0169808,VALID,18.3599,VALID,197,VALID,0.944696,
2000-03-17, 01:22:00,VALID,0,VALID,94.6557,VALID,-0.0169808,VALID,18.2884,VALID,197,VALID,0.757607,
2000-03-17, 01:23:00,VALID,0,VALID,94.9176,VALID,0,VALID,18.2434,VALID,195,VALID,0.675881,
2000-03-17, 01:24:00,VALID,0,VALID,95.9705,VALID,0,VALID,18.2238,VALID,188,VALID,1.05313,
2000-03-17, 01:25:00,VALID,0,VALID,96.4372,VALID,0,VALID,18.2367,VALID,181,VALID,0.997255,
2000-03-17, 01:26:00,VALID,0,VALID,96.2236,VALID,0.0169808,VALID,18.2245,VALID,173,VALID,0.990625,
2000-03-17, 01:27:00,VALID,0,VALID,96.6063,VALID,0,VALID,18.2238,VALID,170,VALID,1.13261,
2000-03-17, 01:28:00,VALID,0,VALID,96.5148,VALID,0,VALID,18.198,VALID,170,VALID,1.07669,
2000-03-17, 01:29:00,VALID,0,VALID,96.6229,VALID,-0.0169808,VALID,18.1756,VALID,170,VALID,0.964177,
2000-03-17, 01:30:00,VALID,0,VALID,96.4003,VALID,-0.0169808,VALID,18.1244,VALID,167,VALID,0.877604,
2000-03-17, 01:31:00,VALID,0,VALID,96.4715,VALID,-0.0169808,VALID,18.0691,VALID,168,VALID,0.868666,
2000-03-17, 01:32:00,VALID,0,VALID,97.101,VALID,-0.0169808,VALID,18.0755,VALID,180,VALID,0.951953,
2000-03-17, 01:33:00,VALID,0,VALID,97.3706,VALID,-0.0169808,VALID,18.108,VALID,190,VALID,0.994721,
2000-03-17, 01:34:00,VALID,0,VALID,96.9738,VALID,-0.0169808,VALID,18.1214,VALID,217,VALID,1.00591,
2000-03-17, 01:35:00,VALID,0,VALID,97.1773,VALID,0,VALID,18.1371,VALID,220,VALID,1.23906,
2000-03-17, 01:36:00,VALID,0,VALID,96.984,VALID,0,VALID,18.1756,VALID,214,VALID,1.08634,
2000-03-17, 01:37:00,VALID,0,VALID,96.97,VALID,-0.0169808,VALID,18.2049,VALID,212,VALID,1.17788,
2000-03-17, 01:38:00,VALID,0,VALID,96.8899,VALID,-0.0169808,VALID,18.2402,VALID,206,VALID,1.23594,
2000-03-17, 01:39:00,VALID,0,VALID,96.8123,VALID,-0.0169808,VALID,18.2695,VALID,198,VALID,1.18184,
2000-03-17, 01:40:00,VALID,0,VALID,96.6636,VALID,-0.0169808,VALID,18.3119,VALID,196,VALID,1.21752,
2000-03-17, 01:41:00,VALID,0,VALID,96.7017,VALID,0,VALID,18.347,VALID,191,VALID,1.41365,
2000-03-17, 01:42:00,VALID,0,VALID,96.558,VALID,0.0169808,VALID,18.4055,VALID,180,VALID,1.49638,
2000-03-17, 01:43:00,VALID,0,VALID,96.2465,VALID,-0.0339617,VALID,18.4505,VALID,178,VALID,1.58691,
2000-03-17, 01:44:00,VALID,0,VALID,95.996,VALID,0,VALID,18.4964,VALID,170,VALID,1.3762,
2000-03-17, 01:45:00,VALID,0,VALID,95.6882,VALID,0,VALID,18.4858,VALID,178,VALID,1.20519,
2000-03-17, 01:46:00,VALID,0,VALID,95.9591,VALID,-0.0339617,VALID,18.4798,VALID,180,VALID,1.1655,
2000-03-17, 01:47:00,VALID,0,VALID,96.0239,VALID,-0.0339617,VALID,18.451,VALID,193,VALID,1.35915,
2000-03-17, 01:48:00,VALID,0,VALID,96.0125,VALID,-0.0169808,VALID,18.412,VALID,198,VALID,1.23281,
2000-03-17, 01:49:00,VALID,0,VALID,96.1409,VALID,-0.0339617,VALID,18.3926,VALID,203,VALID,1.2683,
2000-03-17, 01:50:00,VALID,0,VALID,96.0036,VALID,-0.0169808,VALID,18.3668,VALID,214,VALID,1.14611,
2000-03-17, 01:51:00,VALID,0,VALID,96.1562,VALID,0,VALID,18.3313,VALID,209,VALID,1.45092,
2000-03-17, 01:52:00,VALID,0,VALID,96.1524,VALID,-0.0339617,VALID,18.305,VALID,200,VALID,1.02076,
2000-03-17, 01:53:00,VALID,0,VALID,96.2834,VALID,-0.0509425,VALID,18.2762,VALID,207,VALID,1.022,
2000-03-17, 01:54:00,VALID,0,VALID,96.4194,VALID,0.0169808,VALID,18.2566,VALID,198,VALID,0.986779,
2000-03-17, 01:55:00,VALID,0,VALID,96.483,VALID,0.0849042,VALID,18.2296,VALID,185,VALID,1.28164,
2000-03-17, 01:56:00,VALID,0,VALID,96.5555,VALID,0.0509425,VALID,18.2137,VALID,187,VALID,1.29482,
2000-03-17, 01:57:00,VALID,0,VALID,96.558,VALID,0.0509425,VALID,18.198,VALID,184,VALID,1.21279,
2000-03-17, 01:58:00,VALID,0,VALID,96.7068,VALID,0.0339617,VALID,18.1818,VALID,189,VALID,1.32401,
2000-03-17, 01:59:00,VALID,0,VALID,96.5898,VALID,0.0509425,VALID,18.1618,VALID,195,VALID,1.32492,
2000-03-17, 02:00:00,VALID,0,VALID,96.4372,VALID,0.0849042,VALID,18.1459,VALID,201,VALID,1.26289,
2000-03-17, 02:01:00,VALID,0,VALID,96.6877,VALID,0.0339617,VALID,18.1526,VALID,198,VALID,1.36677,
2000-03-17, 02:02:01,VALID,0,VALID,96.7106,VALID,0.0509425,VALID,18.1848,VALID,205,VALID,1.23884,
2000-03-17, 02:03:00,VALID,0,VALID,96.5644,VALID,0.0169808,VALID,18.1846,VALID,206,VALID,1.24419,
2000-03-17, 02:04:00,VALID,0,VALID,96.6559,VALID,0.0679233,VALID,18.204,VALID,207,VALID,1.43812,
2000-03-17, 02:05:00,VALID,0,VALID,96.7017,VALID,0.0339617,VALID,18.2561,VALID,216,VALID,1.29802,
2000-03-17, 02:06:00,VALID,0,VALID,96.6038,VALID,0.0339617,VALID,18.2778,VALID,212,VALID,1.15465,
2000-03-17, 02:07:00,VALID,0,VALID,96.3393,VALID,0.0679233,VALID,18.3105,VALID,215,VALID,1.0038,
2000-03-17, 02:08:00,VALID,0,VALID,96.0952,VALID,0.0679233,VALID,18.3075,VALID,214,VALID,1.24297,
2000-03-17, 02:09:00,VALID,0,VALID,96.0061,VALID,0.0679233,VALID,18.2911,VALID,215,VALID,1.33826,
2000-03-17, 02:10:00,VALID,0,VALID,96.1575,VALID,0.0509425,VALID,18.2785,VALID,205,VALID,1.19637,
2000-03-17, 02:11:00,VALID,0,VALID,96.1994,VALID,0.0849042,VALID,18.2653,VALID,199,VALID,0.986719,
2000-03-17, 02:12:00,VALID,0,VALID,96.2834,VALID,0.0169808,VALID,18.2529,VALID,200,VALID,0.890425,
2000-03-17, 02:13:00,VALID,0,VALID,96.2363,VALID,0.0509425,VALID,18.2496,VALID,203,VALID,0.79347,
2000-03-17, 02:14:00,VALID,0,VALID,96.3673,VALID,0.0339617,VALID,18.2395,VALID,208,VALID,1.01964,
2000-03-17, 02:15:00,VALID,0,VALID,96.3775,VALID,0.0849042,VALID,18.2298,VALID,195,VALID,0.667578,
2000-03-17, 02:16:00,VALID,0,VALID,96.5122,VALID,0.0509425,VALID,18.2204,VALID,198,VALID,0.83162,
2000-03-17, 02:17:00,VALID,0,VALID,96.2109,VALID,0.0509425,VALID,18.2171,VALID,200,VALID,0.709293,
2000-03-17, 02:18:00,VALID,0,VALID,96.1893,VALID,0.0169808,VALID,18.2174,VALID,202,VALID,0.825076,
2000-03-17, 02:19:00,VALID,0,VALID,96.2287,VALID,0.0679233,VALID,18.2137,VALID,208,VALID,0.965625,
2000-03-17, 02:20:00,VALID,0,VALID,96.4105,VALID,0.0509425,VALID,18.2104,VALID,214,VALID,1.46875,
2000-03-17, 02:21:00,VALID,0,VALID,96.5033,VALID,0.0509425,VALID,18.2072,VALID,215,VALID,1.59674,
2000-03-17, 02:22:00,VALID,0,VALID,96.4779,VALID,-0.0509425,VALID,18.2418,VALID,215,VALID,1.53146,
2000-03-17, 02:23:01,VALID,0,VALID,96.2427,VALID,-0.0339617,VALID,18.2607,VALID,212,VALID,1.47426,
2000-03-17, 02:24:00,VALID,0,VALID,96.0176,VALID,-0.0509425,VALID,18.2697,VALID,208,VALID,1.3346,
2000-03-17, 02:25:00,VALID,0,VALID,95.996,VALID,0,VALID,18.2852,VALID,204,VALID,1.25822,
2000-03-17, 02:26:00,VALID,0,VALID,95.9209,VALID,0.0169808,VALID,18.2879,VALID,200,VALID,1.0076,
2000-03-17, 02:27:00,VALID,0,VALID,95.8739,VALID,0.0169808,VALID,18.2978,VALID,193,VALID,0.944912,
2000-03-17, 02:28:00,VALID,0,VALID,95.8256,VALID,0.0169808,VALID,18.3075,VALID,189,VALID,0.808388,
2000-03-17, 02:29:00,VALID,0,VALID,95.8218,VALID,0,VALID,18.2881,VALID,189,VALID,0.908717,
2000-03-17, 02:30:00,VALID,0,VALID,95.8001,VALID,0.0509425,VALID,18.2916,VALID,194,VALID,0.959135,
2000-03-17, 02:31:00,VALID,0,VALID,95.7264,VALID,0.0339617,VALID,18.2755,VALID,196,VALID,0.791211,
2000-03-17, 02:32:00,VALID,0,VALID,95.8434,VALID,0.0169808,VALID,18.2619,VALID,196,VALID,0.926398,
2000-03-17, 02:33:00,VALID,0,VALID,95.617,VALID,0.0339617,VALID,18.233,VALID,197,VALID,0.855469,
2000-03-17, 02:34:00,VALID,0,VALID,95.9794,VALID,0.0679233,VALID,18.207,VALID,197,VALID,1.09108,
2000-03-17, 02:35:01,VALID,0,VALID,96.0189,VALID,0.0679233,VALID,18.1975,VALID,199,VALID,0.891426,
2000-03-17, 02:36:00,VALID,0,VALID,96.0519,VALID,0.0679233,VALID,18.1722,VALID,197,VALID,0.845898,
2000-03-17, 02:37:00,VALID,0,VALID,96.3101,VALID,0.0679233,VALID,18.1429,VALID,202,VALID,1.02196,
2000-03-17, 02:38:00,VALID,0,VALID,96.5288,VALID,0.0339617,VALID,18.1463,VALID,204,VALID,1.11875,
2000-03-17, 02:39:00,VALID,0,VALID,96.3991,VALID,0.0339617,VALID,18.133,VALID,204,VALID,0.955529,
2000-03-17, 02:40:00,VALID,0,VALID,96.3393,VALID,0,VALID,18.1339,VALID,206,VALID,1.09704,
2000-03-17, 02:41:00,VALID,0,VALID,96.497,VALID,0,VALID,18.1468,VALID,198,VALID,1.14768,
2000-03-17, 02:42:00,VALID,0,VALID,96.1028,VALID,0,VALID,18.1696,VALID,200,VALID,1.16907,
2000-03-17, 02:43:00,VALID,0,VALID,95.9171,VALID,0,VALID,18.1825,VALID,206,VALID,0.955659,
2000-03-17, 02:44:00,VALID,0,VALID,96.0074,VALID,0,VALID,18.2054,VALID,205,VALID,0.931641,
2000-03-17, 02:45:00,VALID,0,VALID,96.0659,VALID,0,VALID,18.2116,VALID,200,VALID,0.987542,
2000-03-17, 02:46:00,VALID,0,VALID,96.1562,VALID,0,VALID,18.2379,VALID,205,VALID,1.10262,
2000-03-17, 02:47:00,VALID,0,VALID,96.0328,VALID,-0.0169808,VALID,18.2824,VALID,205,VALID,0.726758,
2000-03-17, 02:48:00,VALID,0,VALID,95.5293,VALID,0.0169808,VALID,18.2948,VALID,206,VALID,0.791466,
2000-03-17, 02:49:00,VALID,0,VALID,95.6704,VALID,-0.0169808,VALID,18.3276,VALID,206,VALID,0.827925,
2000-03-17, 02:50:00,VALID,0,VALID,95.4199,VALID,0,VALID,18.3437,VALID,211,VALID,0.804241,
2000-03-17, 02:51:00,VALID,0,VALID,95.4517,VALID,0,VALID,18.3564,VALID,215,VALID,1.3291,
2000-03-17, 02:52:00,VALID,0,VALID,95.3309,VALID,-0.0169808,VALID,18.37,VALID,216,VALID,1.46176,
2000-03-17, 02:53:00,VALID,0,VALID,95.2178,VALID,0.0169808,VALID,18.3599,VALID,214,VALID,1.48705,
2000-03-17, 02:54:00,VALID,0,VALID,95.0219,VALID,0,VALID,18.3633,VALID,207,VALID,1.28544,
2000-03-17, 02:55:00,VALID,0,VALID,94.9723,VALID,0,VALID,18.3435,VALID,208,VALID,0.977539,
2000-03-17, 02:56:00,VALID,0,VALID,95.1961,VALID,-0.0169808,VALID,18.3345,VALID,196,VALID,0.995994,
2000-03-17, 02:57:00,VALID,0,VALID,95.2114,VALID,-0.0169808,VALID,18.3274,VALID,205,VALID,1.10317,
2000-03-17, 02:58:00,VALID,0,VALID,95.2063,VALID,0,VALID,18.3345,VALID,217,VALID,1.09478,
2000-03-17, 02:59:00,VALID,0,VALID,95.0601,VALID,-0.0169808,VALID,18.3274,VALID,201,VALID,1.19807,
2000-03-17, 03:00:00,VALID,0,VALID,95.0906,VALID,0,VALID,18.3377,VALID,195,VALID,1.17054,
2000-03-17, 03:01:00,VALID,0,VALID,94.7625,VALID,0.0169808,VALID,18.3506,VALID,194,VALID,0.946546,
2000-03-17, 03:02:00,VALID,0,VALID,94.8172,VALID,-0.0169808,VALID,18.3599,VALID,190,VALID,1.35832,
2000-03-17, 03:03:00,VALID,0,VALID,94.7574,VALID,0,VALID,18.3792,VALID,193,VALID,1.27704,
2000-03-17, 03:04:00,VALID,0,VALID,94.6392,VALID,0.0169808,VALID,18.4023,VALID,193,VALID,1.2903,
2000-03-17, 03:05:00,VALID,0,VALID,94.5705,VALID,0,VALID,18.4083,VALID,195,VALID,1.38384,
2000-03-17, 03:06:00,VALID,0,VALID,94.4535,VALID,0,VALID,18.4118,VALID,195,VALID,1.47236,
2000-03-17, 03:07:01,VALID,0,VALID,94.3887,VALID,0,VALID,18.3984,VALID,192,VALID,1.5334,
2000-03-17, 03:08:01,VALID,0,VALID,94.3073,VALID,0,VALID,18.382,VALID,189,VALID,1.65748,
2000-03-17, 03:09:00,VALID,0,VALID,94.2284,VALID,0,VALID,18.385,VALID,191,VALID,1.55345,
2000-03-17, 03:10:00,VALID,0,VALID,94.2577,VALID,0.0169808,VALID,18.3919,VALID,188,VALID,1.47245,
2000-03-17, 03:11:00,VALID,0,VALID,94.2017,VALID,0,VALID,18.3857,VALID,192,VALID,1.28385,
2000-03-17, 03:12:00,VALID,0,VALID,94.3175,VALID,0,VALID,18.3857,VALID,189,VALID,1.44395,
2000-03-17, 03:13:00,VALID,0,VALID,94.2971,VALID,0,VALID,18.3829,VALID,188,VALID,1.55321,
2000-03-17, 03:14:00,VALID,0,VALID,94.0568,VALID,-0.0169808,VALID,18.3795,VALID,191,VALID,1.59911,
2000-03-17, 03:15:00,VALID,0,VALID,93.9385,VALID,0,VALID,18.3799,VALID,185,VALID,1.4986,
2000-03-17, 03:16:00,VALID,0,VALID,93.8622,VALID,0.0509425,VALID,18.3532,VALID,186,VALID,1.39309,
2000-03-17, 03:17:00,VALID,0,VALID,93.9093,VALID,0,VALID,18.3569,VALID,191,VALID,1.59966,
2000-03-17, 03:18:01,VALID,0,VALID,93.9258,VALID,0,VALID,18.3209,VALID,192,VALID,1.47536,
2000-03-17, 03:19:01,VALID,0,VALID,93.8978,VALID,0,VALID,18.3151,VALID,184,VALID,1.52175,
2000-03-17, 03:20:00,VALID,0,VALID,94.0237,VALID,-0.0169808,VALID,18.2858,VALID,193,VALID,1.54629,
2000-03-17, 03:21:00,VALID,0,VALID,94.0708,VALID,-0.0169808,VALID,18.26,VALID,186,VALID,1.29371,
2000-03-17, 03:22:00,VALID,0,VALID,94.2119,VALID,0,VALID,18.2374,VALID,186,VALID,1.29814,
2000-03-17, 03:23:00,VALID,0,VALID,94.3251,VALID,0,VALID,18.2051,VALID,182,VALID,1.19844,
2000-03-17, 03:24:00,VALID,0,VALID,94.3645,VALID,0,VALID,18.1692,VALID,179,VALID,1.20112,
2000-03-17, 03:25:00,VALID,0,VALID,94.4599,VALID,-0.0169808,VALID,18.1339,VALID,176,VALID,0.992788,
2000-03-17, 03:26:00,VALID,0,VALID,94.5603,VALID,0,VALID,18.0755,VALID,178,VALID,1.06763,
2000-03-17, 03:27:00,VALID,0,VALID,94.7956,VALID,0,VALID,18.0144,VALID,174,VALID,1.13926,
2000-03-17, 03:28:00,VALID,0,VALID,95.0563,VALID,-0.0339617,VALID,17.966,VALID,177,VALID,1.1398,
2000-03-17, 03:29:00,VALID,0,VALID,95.1987,VALID,0,VALID,17.9337,VALID,179,VALID,1.05387,
2000-03-17, 03:30:01,VALID,0,VALID,95.5471,VALID,0,VALID,17.9275,VALID,189,VALID,1.32317,
2000-03-17, 03:31:00,VALID,0,VALID,95.3589,VALID,-0.0339617,VALID,17.9632,VALID,190,VALID,1.25254,
2000-03-17, 03:32:00,VALID,0,VALID,94.9723,VALID,0,VALID,17.9955,VALID,181,VALID,1.29407,
2000-03-17, 03:33:00,VALID,0,VALID,94.6506,VALID,-0.0169808,VALID,18.0181,VALID,183,VALID,1.16544,
2000-03-17, 03:34:00,VALID,0,VALID,94.7345,VALID,0,VALID,18.0112,VALID,193,VALID,1.09683,
2000-03-17, 03:35:00,VALID,0,VALID,94.7015,VALID,-0.0169808,VALID,18.0082,VALID,193,VALID,1.28355,
2000-03-17, 03:36:00,VALID,0,VALID,94.8795,VALID,-0.0339617,VALID,18.0087,VALID,193,VALID,1.31429,
2000-03-17, 03:37:00,VALID,0,VALID,94.7345,VALID,-0.0339617,VALID,18.0177,VALID,188,VALID,1.45621,
2000-03-17, 03:38:00,VALID,0,VALID,94.6862,VALID,-0.0169808,VALID,18.0313,VALID,191,VALID,1.42124,
2000-03-17, 03:39:00,VALID,0,VALID,94.5171,VALID,0,VALID,18.0243,VALID,182,VALID,1.26402,
2000-03-17, 03:40:01,VALID,0,VALID,94.9393,VALID,0.0509425,VALID,18.0071,VALID,187,VALID,1.35156,
2000-03-17, 03:41:01,VALID,0,VALID,94.8948,VALID,0.0339617,VALID,18.0036,VALID,181,VALID,1.40954,
2000-03-17, 03:42:00,VALID,0,VALID,94.8579,VALID,0.0679233,VALID,18.0237,VALID,190,VALID,1.27143,
2000-03-17, 03:43:00,VALID,0,VALID,94.7015,VALID,0.0679233,VALID,18.0138,VALID,200,VALID,1.28242,
2000-03-17, 03:44:00,VALID,0,VALID,94.6951,VALID,0.0339617,VALID,17.9978,VALID,203,VALID,1.09766,
2000-03-17, 03:45:00,VALID,0,VALID,94.7752,VALID,0.0679233,VALID,17.9974,VALID,194,VALID,1.55366,
2000-03-17, 03:46:00,VALID,0,VALID,94.4815,VALID,0.0679233,VALID,18.0269,VALID,188,VALID,1.65769,
2000-03-17, 03:47:00,VALID,0,VALID,94.0949,VALID,0.101885,VALID,18.0942,VALID,180,VALID,1.78045,
2000-03-17, 03:48:00,VALID,0,VALID,93.791,VALID,0.0849042,VALID,18.1486,VALID,166,VALID,1.43711,
2000-03-17, 03:49:00,VALID,0,VALID,93.4311,VALID,0.0169808,VALID,18.1722,VALID,167,VALID,1.35726,
2000-03-17, 03:50:01,VALID,0,VALID,93.435,VALID,0.0509425,VALID,18.159,VALID,174,VALID,1.3692,
2000-03-17, 03:51:01,VALID,0,VALID,93.5011,VALID,0.0849042,VALID,18.162,VALID,181,VALID,1.16006,
2000-03-17, 03:52:01,VALID,0,VALID,93.4922,VALID,0.0509425,VALID,18.1652,VALID,185,VALID,1.18709,
2000-03-17, 03:53:00,VALID,0,VALID,93.6092,VALID,0.0509425,VALID,18.1592,VALID,195,VALID,1.62748,
2000-03-17, 03:54:00,VALID,0,VALID,93.5672,VALID,0.101885,VALID,18.1526,VALID,211,VALID,1.57973,
2000-03-17, 03:55:00,VALID,0,VALID,93.4515,VALID,0.0679233,VALID,18.1558,VALID,213,VALID,1.49303,
2000-03-17, 03:56:00,VALID,0,VALID,93.2531,VALID,0.0509425,VALID,18.1592,VALID,208,VALID,1.36348,
2000-03-17, 03:57:00,VALID,0,VALID,93.2709,VALID,0.0339617,VALID,18.1399,VALID,212,VALID,0.983953,
2000-03-17, 03:58:00,VALID,0,VALID,93.2709,VALID,0.0679233,VALID,18.1233,VALID,218,VALID,0.684333,
2000-03-17, 03:59:00,VALID,0,VALID,93.3192,VALID,0.0679233,VALID,18.0622,VALID,215,VALID,0.897266,
2000-03-17, 04:00:00,VALID,0,VALID,93.6753,VALID,0.0679233,VALID,17.9978,VALID,190,VALID,1.19792,
2000-03-17, 04:01:00,VALID,0,VALID,93.6232,VALID,0.0679233,VALID,17.9393,VALID,164,VALID,1.29808,
2000-03-17, 04:02:01,VALID,0,VALID,93.7274,VALID,0.0339617,VALID,17.8978,VALID,177,VALID,1.30022,
2000-03-17, 04:03:01,VALID,0,VALID,94.0975,VALID,0.0509425,VALID,17.8295,VALID,166,VALID,1.31973,
2000-03-17, 04:04:00,VALID,0,VALID,94.3086,VALID,0.0509425,VALID,17.7714,VALID,169,VALID,1.40707,
2000-03-17, 04:05:00,VALID,0,VALID,94.5069,VALID,0.0339617,VALID,17.7394,VALID,175,VALID,1.55222,
2000-03-17, 04:06:00,VALID,0,VALID,94.6404,VALID,0.0849042,VALID,17.7396,VALID,178,VALID,1.36204,
2000-03-17, 04:07:00,VALID,0,VALID,94.8719,VALID,0.0509425,VALID,17.7521,VALID,177,VALID,1.34766,
2000-03-17, 04:08:00,VALID,0,VALID,94.6163,VALID,0.0509425,VALID,17.7684,VALID,166,VALID,1.59455,